Date String (YYYY-MM-DD hh:mm:ss) UTC,Instrument flags,Ambient pressure (hPa),Sample flow (lpm),Bypass flow (lpm),Sample temperature (°C),Ambient temperature (°C),ASC tube jacket temperature (°C),LED temperature (°C),Box temperature (°C),Sample RH (%),Span deviation,Mass concentration (μg/m³),Mass concentration (μg/m³),Mass concentration (μg/m³)
DateTimeUTC,F1_M11,P_M11,Q1_M11,Q2_M11,T1_M11,T2_M11,T3_M11,T4_M11,T5_M11,U1_M11,ZSPAN_M11,X0_M11,X2_M11,X1_M11
2021-09-03 04:00:00,,0828.9,5.01,0.00,29.7,26.4,00.0,38.8,31.0,28.7,0002.3,0018.77,0014.24,0013.81
2021-09-03 04:01:00,,0828.6,4.99,0.00,29.6,26.2,00.0,38.8,30.9,29.0,0002.2,0018.90,0014.33,0013.88
2021-09-03 04:02:00,,0828.7,5.01,0.00,29.5,26.6,00.0,38.8,30.9,29.2,0002.0,0019.07,0014.44,0013.99
2021-09-03 04:03:00,,0829.0,4.99,0.00,29.5,27.0,00.0,38.7,31.0,29.3,0002.1,0019.09,0014.55,0014.10
2021-09-03 04:04:00,,0828.9,5.00,0.00,29.5,27.4,00.0,38.7,31.1,29.1,0002.2,0019.01,0014.68,0014.25
2021-09-03 04:05:00,,0828.7,5.00,0.00,29.5,27.7,00.0,38.7,31.2,29.2,0002.4,0019.13,0014.80,0014.38
2021-09-03 04:06:00,,0829.0,5.01,0.00,29.5,27.9,00.0,38.7,31.2,29.2,0002.4,0019.12,0014.96,0014.53
2021-09-03 04:07:00,,0828.7,4.99,0.00,29.5,28.1,00.0,38.7,31.3,29.3,0002.3,0018.54,0015.14,0014.68
2021-09-03 04:08:00,,0828.7,5.00,0.00,29.5,28.3,00.0,38.7,31.3,29.3,0002.3,0019.08,0015.34,0014.85
2021-09-03 04:09:00,,0828.8,5.01,0.00,29.6,28.4,00.0,38.7,31.3,29.3,0002.1,0019.19,0015.51,0015.00
2021-09-03 04:10:00,,0828.7,5.01,0.00,29.6,28.5,00.0,38.7,31.4,29.3,0002.1,0019.41,0015.67,0015.15
2021-09-03 04:11:00,,0828.7,4.98,0.00,29.6,28.6,00.0,38.7,31.4,29.2,0002.1,0019.65,0015.82,0015.27
2021-09-03 04:12:00,,0828.7,5.00,0.00,29.6,28.7,00.0,38.7,31.5,29.2,0002.2,0019.88,0015.97,0015.40
2021-09-03 04:13:00,,0829.2,5.00,0.00,29.7,28.8,00.0,38.7,31.5,29.2,0002.2,0020.63,0016.09,0015.52
2021-09-03 04:14:00,,0829.2,5.00,0.00,29.7,28.8,00.0,38.7,31.5,29.0,0002.0,0021.13,0016.27,0015.66
2021-09-03 04:15:00,,0829.2,5.00,0.00,29.7,28.9,00.0,38.7,31.6,28.9,0002.0,0021.87,0016.42,0015.76
2021-09-03 04:16:00,,0829.2,5.00,0.00,29.8,28.9,00.0,38.8,31.6,28.7,0001.9,0022.10,0016.51,0015.83
2021-09-03 04:17:00,,0828.9,5.00,0.00,29.8,29.0,00.0,38.8,31.6,28.8,0002.1,0021.91,0016.59,0015.92
2021-09-03 04:18:00,,0828.7,5.01,0.00,29.8,29.0,00.0,38.8,31.7,28.8,0002.1,0021.80,0016.64,0015.98
2021-09-03 04:19:00,,0828.8,5.00,0.00,29.9,29.1,00.0,38.8,31.7,28.6,0002.2,0021.65,0016.71,0016.04
2021-09-03 04:20:00,,0829.0,5.00,0.00,29.9,29.1,00.0,38.8,31.8,28.4,0002.4,0021.76,0016.80,0016.11
2021-09-03 04:21:00,,0829.0,5.00,0.00,29.9,29.2,00.0,38.9,31.8,28.5,0002.4,0021.94,0016.89,0016.17
2021-09-03 04:22:00,,0828.9,5.00,0.00,29.9,29.2,00.0,38.9,31.8,28.4,0002.5,0022.11,0016.95,0016.24
2021-09-03 04:23:00,,0829.1,5.00,0.00,30.0,29.2,00.0,38.9,31.8,28.3,0002.5,0022.66,0016.99,0016.28
2021-09-03 04:24:00,,0828.9,4.99,0.00,30.0,29.2,00.0,38.9,31.8,28.4,0002.5,0022.04,0017.03,0016.33
2021-09-03 04:25:00,,0829.0,5.00,0.00,30.0,28.4,00.0,39.0,31.6,28.3,0002.6,0022.16,0017.02,0016.36
2021-09-03 04:26:00,,0829.1,5.00,0.00,29.8,26.7,00.0,38.9,31.1,28.4,0002.6,0021.38,0017.01,0016.41
2021-09-03 04:27:00,,0829.1,4.99,0.00,29.7,26.4,00.0,38.9,31.0,28.3,0002.7,0021.49,0017.03,0016.45
2021-09-03 04:28:00,,0828.8,5.01,0.00,29.6,26.7,00.0,38.9,31.1,28.4,0002.7,0022.00,0017.06,0016.45
2021-09-03 04:29:00,,0828.7,4.99,0.00,29.6,27.1,00.0,38.8,31.1,28.6,0002.7,0022.39,0017.12,0016.50
2021-09-03 04:30:00,,0828.7,5.00,0.00,29.6,27.5,00.0,38.8,31.2,28.6,0002.7,0022.43,0017.15,0016.52
2021-09-03 04:31:00,,0829.3,5.01,0.00,29.6,27.8,00.0,38.8,31.3,28.5,0002.5,0022.48,0017.17,0016.55
2021-09-03 04:32:00,,0829.3,4.99,0.00,29.6,28.1,00.0,38.8,31.3,28.5,0002.4,0022.83,0017.23,0016.56
2021-09-03 04:33:00,,0829.4,4.99,0.00,29.6,28.2,00.0,38.8,31.4,28.6,0002.3,0022.93,0017.24,0016.58
2021-09-03 04:34:00,,0829.3,5.01,0.00,29.7,28.4,00.0,38.8,31.4,28.6,0002.2,0022.37,0017.24,0016.60
2021-09-03 04:35:00,,0829.3,4.99,0.00,29.7,28.5,00.0,38.8,31.4,29.0,0002.1,0022.42,0017.26,0016.61
2021-09-03 04:36:00,,0829.4,5.00,0.00,29.7,28.6,00.0,38.8,31.5,30.2,0002.1,0022.04,0017.30,0016.60
2021-09-03 04:37:00,,0829.1,5.01,0.00,29.7,28.7,00.0,38.8,31.5,30.5,0002.1,0022.25,0017.25,0016.55
2021-09-03 04:38:00,,0828.9,5.00,0.00,29.8,28.7,00.0,38.8,31.5,30.6,0002.0,0021.80,0017.17,0016.49
2021-09-03 04:39:00,,0828.8,4.99,0.00,29.8,28.8,00.0,38.8,31.6,29.8,0001.9,0021.29,0017.12,0016.44
2021-09-03 04:40:00,,0828.8,5.02,0.00,29.8,28.8,00.0,38.8,31.6,29.0,0001.7,0020.97,0017.08,0016.39
2021-09-03 04:41:00,,0828.8,5.00,0.00,29.8,28.9,00.0,38.9,31.6,28.9,0001.9,0020.87,0017.00,0016.32
2021-09-03 04:42:00,,0829.3,4.99,0.00,29.9,28.9,00.0,38.9,31.7,28.7,0002.0,0020.69,0016.94,0016.28
2021-09-03 04:43:00,,0829.4,5.01,0.00,29.9,28.9,00.0,38.9,31.7,27.8,0001.9,0020.29,0016.88,0016.25
2021-09-03 04:44:00,,0829.4,4.99,0.00,29.9,28.9,00.0,38.9,31.7,27.9,0001.8,0019.90,0016.82,0016.21
2021-09-03 04:45:00,,0829.2,5.00,0.00,29.9,27.7,00.0,38.9,31.4,27.6,0001.9,0019.86,0016.80,0016.20
2021-09-03 04:46:00,,0829.1,5.00,0.00,29.7,26.4,00.0,38.9,31.1,28.2,0001.9,0019.80,0016.79,0016.18
2021-09-03 04:47:00,,0829.1,5.01,0.00,29.6,26.3,00.0,38.9,31.0,28.0,0001.9,0019.72,0016.76,0016.17
2021-09-03 04:48:00,,0828.7,5.00,0.00,29.6,26.7,00.0,38.8,31.0,28.1,0001.8,0019.38,0016.79,0016.20
2021-09-03 04:49:00,,0828.7,5.00,0.00,29.5,27.1,00.0,38.8,31.1,28.0,0002.0,0019.42,0016.82,0016.22
2021-09-03 04:50:00,,0828.7,5.00,0.00,29.5,27.5,00.0,38.8,31.1,27.9,0002.1,0019.35,0016.82,0016.25
2021-09-03 04:51:00,,0828.7,5.00,0.00,29.5,27.8,00.0,38.7,31.2,27.9,0002.3,0019.23,0016.78,0016.25
2021-09-03 04:52:00,,0828.7,4.99,0.00,29.6,28.0,00.0,38.7,31.2,27.8,0002.2,0019.25,0016.80,0016.28
2021-09-03 04:53:00,,0828.7,5.01,0.00,29.6,28.1,00.0,38.7,31.3,28.0,0002.1,0019.22,0016.78,0016.27
2021-09-03 04:54:00,,0828.8,4.98,0.00,29.6,28.3,00.0,38.7,31.3,28.7,0002.2,0019.15,0016.76,0016.27
2021-09-03 04:55:00,,0828.8,5.00,0.00,29.6,28.4,00.0,38.7,31.4,29.1,0002.2,0019.06,0016.71,0016.22
2021-09-03 04:56:00,,0828.7,4.99,0.00,29.7,28.5,00.0,38.7,31.4,29.3,0002.0,0019.07,0016.60,0016.13
2021-09-03 04:57:00,,0828.7,5.01,0.00,29.7,28.6,00.0,38.8,31.4,29.1,0002.0,0019.46,0016.52,0016.06
2021-09-03 04:58:00,,0829.3,5.01,0.00,29.7,28.6,00.0,38.8,31.5,29.2,0002.0,0019.41,0016.43,0015.97
2021-09-03 04:59:00,,0829.1,4.99,0.00,29.7,28.7,00.0,38.8,31.5,29.2,0001.7,0019.41,0016.35,0015.88
